Location: Ash Observatory
(39.7321°N, 75.2004°W)
Time: 19:25:27
(UTC-04:00)

Envisat - Visible Passes

Search period start: 20 October 2018 00:00
Search period end: 30 October 2018 00:00
Orbit: 764 x 766 km, 98.2° (Epoch: 20 October)

Date Brightness Start Highest point End Pass type
(mag) Time Alt. Az. Time Alt. Az. Time Alt. Az.
20 Oct 3.6 19:16:24 10° SE 19:20:57 35° ENE 19:25:32 10° N visible
20 Oct 5.0 20:55:48 10° SSW 21:00:00 26° W 21:04:14 10° NW visible
21 Oct 4.5 18:41:27 10° ESE 18:44:35 17° ENE 18:47:43 10° NNE visible
21 Oct 3.5 20:18:06 10° S 20:23:05 59° W 20:28:07 10° NNW visible
22 Oct 2.9 19:41:23 10° SSE 19:46:23 61° ENE 19:51:24 10° N visible
22 Oct 5.7 21:23:02 10° SW 21:25:47 15° W 21:28:34 10° WNW visible
23 Oct 3.8 19:05:36 10° SE 19:09:52 28° ENE 19:14:09 10° N visible
23 Oct 4.6 20:44:12 10° SSW 20:48:45 33° W 20:53:19 10° NNW visible
24 Oct 3.1 20:06:50 10° S 20:11:54 76° WSW 20:17:00 10° NNW visible
25 Oct 3.2 19:30:23 10° SE 19:35:14 48° ENE 19:40:07 10° N visible
25 Oct 5.4 21:10:59 10° SW 21:14:30 19° W 21:18:02 10° NW visible
26 Oct 4.1 18:54:54 10° ESE 18:58:47 23° ENE 19:02:40 10° NNE visible
26 Oct 4.1 20:32:43 10° S 20:37:30 42° W 20:42:19 10° NNW visible
27 Oct 2.9 19:55:38 10° SSE 20:00:43 86° ENE 20:05:50 10° NNW visible
28 Oct 3.4 19:19:27 10° SE 19:24:06 38° ENE 19:28:48 10° N visible
28 Oct 5.1 20:59:11 10° SSW 21:03:13 24° W 21:07:17 10° NW visible
29 Oct 4.3 18:44:20 10° ESE 18:47:43 18° ENE 18:51:06 10° NNE visible
29 Oct 3.6 20:21:21 10° S 20:26:17 53° W 20:31:16 10° NNW visible
